Dauntless Aviation
Airports South America Argentina
SABE
AEP

Aeroparque Jorge Newbery

Buenos Aires, ARGENTINA

Airport Info
Suggest Updated Information for this Airport

Location

Latitude / Longitude: 34°33'33"S / 58°24'56"W
  34°33.552'S / 58°24.936'W
  -34.5592 / -58.4156

Nearby radio navigation aids

FDO SAN FERNANDO VOR/DME. 132.7° 10.6nm from FDO to field.
OP AEROPARQUE JORGE NEWBERY NDB. 131.1° 4.3nm from OP to field.

Runway Information

Runway 13 /31

Dimensions: 6890 x 131 ft.
Surface: ASP
 
Runway 13
Runway 31
Latitude: -34.553942 -34.563844
Longitude: -58.425247 -58.407506
Elevation: 18 ft. 18 ft.
Runway true heading: 126.3 306.3
 

Instrument Procedures

  Aerodrome Chart

STARs (Standard Terminal Arrivals)

  STAR Rwy 13/16 SARGO7C KOVUK7C TENIL7C BELGRANO7C
  STAR Rwy 13/16 PAGON7C SAN ANTONIO7C ASADA7C VALOS8C
  STAR Rwy 13/16 SURBO7A KUKEN1C PAPIX1C
  STAR Rwy 31 SURBO2B SARGO7D KOVUK7D TENIL7D BELGRANO7D VALOS7D ASADA7D
  STAR Rwy 31 PAGON7D SAN ANTONIO7D

IAPs (Instrument Approach Procedures)

  VOR (DME) ILS Rwy 13
  VOR (DMS) ILS (DME) Rwy 13
  LI ILS (DME) Rwy 13
  VOR (DME) LO LI Rwy 13
  LI LO LI Rwy 13
  LI Rwy 31
  LI Rwy 31

Departure Procedures

  SID Rwy 13/31 LANDA3B VIBAM38 ATOVO38
  SID Rwy 13/31 EZEIZA8
  SID Rwy 13/31 EL PALOMAR 8
  SID Rwy 13/31 KUKEN7 SURBO7 DORVO7 LA PLAYA7
Satellite photo at:
Airport distance calculator
From:
Weather Reports

METAR

SABE

SABE 022100Z 33003KT 5000 BR BKN040 BKN100 15/13 Q1022
SADF
10.6nm W
SADF 022100Z 00000KT 9000 SCT025 BKN200 17/12 Q1022
SAEZ
16.2nm S
SAEZ 022100Z 00000KT CAVOK 17/11 Q1022
SUCA
30.3nm NE
SUCA 022100Z 00000KT CAVOK 15/11 Q1020

TAF

SABE
TAF SABE 021700Z 0218/0318 040005KT 9999 FEW025 BKN100 TX18/0219Z TN09/0310Z BECMG 0223/0301 16015KT 5000 -RADZ BKN010 BECMG 0306/0308 18005KT 9999 SCT020 BKN100
SADF
10.6nm W
TAF SADF 021700Z 0218/0318 14005KT 8000 FEW020 BKN100 TX18/0218Z TN07/0309Z PROB30 TEMPO 0308/0312 5000 DZBR BKN010 BECMG 0316/0318 09015KT 9999 SCT020
SAEZ
16.2nm S
TAF SAEZ 021700Z 0218/0318 18007KT 9999 SCT030 SCT050 TX19/0218Z TN04/0309Z BECMG 0300/0303 13010KT 8000 SCT020 PROB30 0306/0311 VRB05KT 5000 BRDZ SCT010 SCT030 BECMG 0315/0318 09005KT CAVOK
SUCA
30.3nm NE
SUCA 021710Z 0218/0318 24008KT 8000 FEW025 SCT080 BKN200 TX17/0318Z TN07/0310Z BECMG 0300/0302 17012KT 9999 BKN013 BKN060 PROB30 TEMPO 0300/0306 16010G20KT 6000 SHRA
Safelog

 

Dauntless Aviation

© 2007-2016 Dauntless Aviation, all rights reserved
Information provided via PilotNav comes from a variety of official and unofficial data sources. As errors are possible, do not use PilotNav for primary flight planning purposes. Verify any information that you receive via PilotNav with current and canonical charts and other official documents. The material in this database is subject to database copyrights held by Dauntless Aviation and may not be copied without the express permission of Dauntless Aviation - licenses for use of part of all of this data are available for purchase; enquire via the Dauntless Aviation helpdesk. A number of mechanisms and markers exist in the database to protect against and identify infringement / copyright. Automated queries against this website are stictly prohibited, and all activity is logged and analyzed.